Farmingdale, NY

8:53 AM EDT on June 21, 2018 (GMT -0400)
Republic

Weather History for KFRG - September, 2017

Change the Weather History Date:

Monday, September 11, 2017

  Actual Average Record
Temperature  
Mean Temperature 64 °F -  
Max Temperature 75 °F 75 °F 89 °F (2013)
Min Temperature 54 °F 60 °F 53 °F (2006)
Growing Degree Days 14 (Base 50)    
Moisture  
Dew Point 49 °F    
Average Humidity 58    
Maximum Humidity 83    
Minimum Humidity 34    
Precipitation  
Precipitation 0.00 in - - ()
Sea Level Pressure  
Sea Level Pressure 30.24 in    
Wind  
Wind Speed 6 mph (North)    
Max Wind Speed 10 mph    
Max Gust Speed -    
Visibility 10 miles    
Events      
Averages and records for this station are not official NWS values.
T = Trace of Precipitation, MM = Missing Value Source: NWS Daily Summary

Daily Weather History Graph

Daily Weather History Graph

Search for Another Location

Airport or City:

Astronomy

Sep. 11, 2017 Rise Set
Actual Time 6:30 AM EDT 7:08 PM EDT
Civil Twilight 6:03 AM EDT 7:36 PM EDT
Nautical Twilight 5:30 AM EDT 8:09 PM EDT
Astronomical Twilight 4:56 AM EDT 8:42 PM EDT
Moon 10:45 PM EDT (9/11) 12:08 PM EDT (9/11)
Length of Visible Light 13h 33m
Length of Day
12h 38m
Waning Gibbous, 68% of the Moon is Illuminated
Sep 11
Waning Gibbous
Sep 13
Last Quarter
Sep 20
New
Sep 27
First Quarter
Oct 5
Full

Hourly Weather History & Observations

Time (EDT) Temp. Dew Point Humidity Pressure Visibility Wind Dir Wind Speed Gust Speed Precip Events Conditions
12:53 AM 60.1 °F 48.9 °F 67% 30.35 in 10.0 mi North 5.8 mph - N/A   Clear
1:53 AM 59.0 °F 50.0 °F 72% 30.32 in 10.0 mi North 9.2 mph - N/A   Clear
2:53 AM 57.0 °F 50.0 °F 77% 30.32 in 10.0 mi North 6.9 mph - N/A   Clear
3:53 AM 55.9 °F 50.0 °F 80% 30.31 in 10.0 mi NNE 10.4 mph - N/A   Clear
4:53 AM 55.0 °F 48.9 °F 80% 30.31 in 10.0 mi NNE 4.6 mph - N/A   Clear
5:53 AM 54.0 °F 48.9 °F 83% 30.31 in 10.0 mi NNE 4.6 mph - N/A   Clear
6:53 AM 57.0 °F 50.0 °F 77% 30.33 in 10.0 mi Calm Calm - N/A   Clear
7:53 AM 59.0 °F 51.1 °F 75% 30.33 in 10.0 mi North 4.6 mph - N/A   Clear
8:53 AM 63.0 °F 50.0 °F 63% 30.32 in 10.0 mi North 8.1 mph - N/A   Clear
9:53 AM 66.0 °F 48.9 °F 54% 30.32 in 10.0 mi NNE 9.2 mph - N/A   Clear
10:53 AM 68.0 °F 48.0 °F 49% 30.31 in 10.0 mi NNE 8.1 mph - N/A   Clear
11:53 AM 70.0 °F 48.9 °F 47% 30.27 in 10.0 mi NNE 6.9 mph - N/A   Clear
12:53 PM 71.1 °F 48.9 °F 45% 30.25 in 10.0 mi Variable 6.9 mph - N/A   Clear
1:53 PM 73.0 °F 46.9 °F 39% 30.23 in 10.0 mi Variable 5.8 mph - N/A   Clear
2:53 PM 75.0 °F 45.0 °F 34% 30.21 in 10.0 mi North 6.9 mph - N/A   Clear
3:53 PM 75.9 °F 46.9 °F 36% 30.19 in 10.0 mi Variable 4.6 mph - N/A   Clear
4:01 PM 75.9 °F 46.9 °F 36% 30.19 in 10.0 mi NNW 6.9 mph - N/A   Clear
4:53 PM 75.0 °F 46.9 °F 37% 30.17 in 10.0 mi NW 6.9 mph - N/A   Clear
5:53 PM 73.9 °F 48.9 °F 41% 30.16 in 10.0 mi NNW 6.9 mph - N/A   Clear
6:53 PM 72.0 °F 48.9 °F 44% 30.15 in 10.0 mi North 4.6 mph - N/A   Clear
7:53 PM 68.0 °F 51.1 °F 55% 30.14 in 10.0 mi North 5.8 mph - N/A   Clear
8:53 PM 66.0 °F 53.1 °F 63% 30.15 in 10.0 mi North 3.5 mph - N/A   Clear
9:53 PM 64.0 °F 52.0 °F 65% 30.14 in 10.0 mi West 3.5 mph - N/A   Clear
10:53 PM 62.1 °F 53.1 °F 72% 30.13 in 10.0 mi Calm Calm - N/A   Clear
11:53 PM 63.0 °F 52.0 °F 67% 30.11 in 10.0 mi Calm Calm - N/A   Clear